owner,sensor,date,latitude,longitude,vertical_datum,direction_of_sea_water_velocity,sea_water_speed,upward_sea_water_velocity,qcFlag 
TABS,ioos:station:wmo:42043:1,2006-01-01T00:00:00Z,28.9818,-94.9186,2.0,85.53045297,3.721316971,-99999.0,'11133222,11111222,99999999' 
TABS,ioos:station:wmo:42043:1,2006-01-01T00:30:00Z,28.9818,-94.9186,2.0,99.6518109,4.473320914,-99999.0,'11133222,11111222,99999999' 
TABS,ioos:station:wmo:42043:1,2006-01-01T01:00:00Z,28.9818,-94.9186,2.0,62.6341921,7.679407529,-99999.0,'11133222,11111222,99999999' 
TABS,ioos:station:wmo:42043:1,2006-01-01T01:30:00Z,28.9818,-94.9186,2.0,63.05673132,8.805827616,-99999.0,'11133222,11111222,99999999' 
TABS,ioos:station:wmo:42043:1,2006-01-01T02:00:00Z,28.9818,-94.9186,2.0,34.67287549,12.93751135,-99999.0,'11111222,11111222,99999999' 
TABS,ioos:station:wmo:42043:1,2006-01-01T02:30:00Z,28.9818,-94.9186,2.0,43.93624152,15.23370605,-99999.0,'11111222,11111222,99999999' 
TABS,ioos:station:wmo:42043:1,2006-01-01T03:00:00Z,28.9818,-94.9186,2.0,39.62557993,17.51425134,-99999.0,'11111222,11111222,99999999' 
TABS,ioos:station:wmo:42043:1,2006-01-01T03:30:00Z,28.9818,-94.9186,2.0,43.57341428,18.74414042,-99999.0,'11111222,11111222,99999999' 
TABS,ioos:station:wmo:42043:1,2006-01-01T04:00:00Z,28.9818,-94.9186,2.0,50.73901238,22.76982653,-99999.0,'11111222,11111222,99999999' 
TABS,ioos:station:wmo:42043:1,2006-01-01T04:30:00Z,28.9818,-94.9186,2.0,50.66425871,21.70810217,-99999.0,'11111222,11111222,99999999' 
TABS,ioos:station:wmo:42043:1,2006-01-01T05:00:00Z,28.9818,-94.9186,2.0,49.40399153,23.94261473,-99999.0,'11111222,11111222,99999999' 
TABS,ioos:station:wmo:42043:1,2006-01-01T05:30:00Z,28.9818,-94.9186,2.0,51.70725476,26.57819595,-99999.0,'11111222,11111222,99999999' 
TABS,ioos:station:wmo:42043:1,2006-01-01T06:00:00Z,28.9818,-94.9186,2.0,57.35139738,24.2638208,-99999.0,'11111222,11111222,99999999' 
TABS,ioos:station:wmo:42043:1,2006-01-01T06:30:00Z,28.9818,-94.9186,2.0,54.3807411,24.46782786,-99999.0,'11111222,11111222,99999999' 
TABS,ioos:station:wmo:42043:1,2006-01-01T07:00:00Z,28.9818,-94.9186,2.0,61.45833521,25.2826126,-99999.0,'11111222,11111222,99999999' 
TABS,ioos:station:wmo:42043:1,2006-01-01T07:30:00Z,28.9818,-94.9186,2.0,65.54618861,23.91532772,-99999.0,'11111222,11111222,99999999' 
TABS,ioos:station:wmo:42043:1,2006-01-01T08:00:00Z,28.9818,-94.9186,2.0,67.16389662,22.21092749,-99999.0,'11111222,11111222,99999999' 
TABS,ioos:station:wmo:42043:1,2006-01-01T08:30:00Z,28.9818,-94.9186,2.0,77.09100369,21.57529374,-99999.0,'11111222,11111222,99999999' 
TABS,ioos:station:wmo:42043:1,2006-01-01T09:00:00Z,28.9818,-94.9186,2.0,83.39248705,22.24777742,-99999.0,'11111222,11111222,99999999' 
TABS,ioos:station:wmo:42043:1,2006-01-01T09:30:00Z,28.9818,-94.9186,2.0,87.72931192,20.69625087,-99999.0,'11111222,11111222,99999999' 
TABS,ioos:station:wmo:42043:1,2006-01-01T10:00:00Z,28.9818,-94.9186,2.0,103.3573505,19.65161571,-99999.0,'11111222,11111222,99999999' 
TABS,ioos:station:wmo:42043:1,2006-01-01T10:30:00Z,28.9818,-94.9186,2.0,111.4727579,19.75088099,-99999.0,'11111222,11111222,99999999' 
TABS,ioos:station:wmo:42043:1,2006-01-01T11:00:00Z,28.9818,-94.9186,2.0,123.8733469,19.93325362,-99999.0,'11111222,11111222,99999999' 
TABS,ioos:station:wmo:42043:1,2006-01-01T11:30:00Z,28.9818,-94.9186,2.0,131.8735694,21.00404723,-99999.0,'11111222,11111222,99999999' 
TABS,ioos:station:wmo:42043:1,2006-01-01T12:00:00Z,28.9818,-94.9186,2.0,141.3272768,20.9803837,-99999.0,'11111222,11111222,99999999' 
TABS,ioos:station:wmo:42043:1,2006-01-01T12:30:00Z,28.9818,-94.9186,2.0,147.0751551,18.89477441,-99999.0,'11111222,11111222,99999999' 
TABS,ioos:station:wmo:42043:1,2006-01-01T13:00:00Z,28.9818,-94.9186,2.0,160.7111019,20.58555076,-99999.0,'11111222,11111222,99999999' 
TABS,ioos:station:wmo:42043:1,2006-01-01T13:30:00Z,28.9818,-94.9186,2.0,165.5578676,20.20857491,-99999.0,'11111222,11111222,99999999' 
TABS,ioos:station:wmo:42043:1,2006-01-01T14:00:00Z,28.9818,-94.9186,2.0,174.7508635,16.17783978,-99999.0,'11111222,11111222,99999999' 
TABS,ioos:station:wmo:42043:1,2006-01-01T14:30:00Z,28.9818,-94.9186,2.0,178.9822667,18.58293034,-99999.0,'11111222,11111222,99999999' 
TABS,ioos:station:wmo:42043:1,2006-01-01T15:00:00Z,28.9818,-94.9186,2.0,185.2040775,15.76498969,-99999.0,'11111222,11111222,99999999' 
TABS,ioos:station:wmo:42043:1,2006-01-01T15:30:00Z,28.9818,-94.9186,2.0,193.9635527,13.42678294,-99999.0,'11111222,11111222,99999999' 
TABS,ioos:station:wmo:42043:1,2006-01-01T16:00:00Z,28.9818,-94.9186,2.0,201.6687238,12.05165964,-99999.0,'11111222,11111222,99999999' 
TABS,ioos:station:wmo:42043:1,2006-01-01T16:30:00Z,28.9818,-94.9186,2.0,206.9563145,9.816567628,-99999.0,'11133222,11111222,99999999' 
TABS,ioos:station:wmo:42043:1,2006-01-01T17:00:00Z,28.9818,-94.9186,2.0,225.6544632,9.900141413,-99999.0,'11133222,11111222,99999999' 
TABS,ioos:station:wmo:42043:1,2006-01-01T17:30:00Z,28.9818,-94.9186,2.0,242.4815834,6.990915534,-99999.0,'11133222,11111222,99999999' 
TABS,ioos:station:wmo:42043:1,2006-01-01T18:00:00Z,28.9818,-94.9186,2.0,252.0799923,7.735244017,-99999.0,'11133222,11111222,99999999' 
TABS,ioos:station:wmo:42043:1,2006-01-01T18:30:00Z,28.9818,-94.9186,2.0,286.4502103,8.581246996,-99999.0,'11133222,11111222,99999999' 
TABS,ioos:station:wmo:42043:1,2006-01-01T19:00:00Z,28.9818,-94.9186,2.0,298.7464174,7.755830065,-99999.0,'11133222,11111222,99999999' 
TABS,ioos:station:wmo:42043:1,2006-01-01T19:30:00Z,28.9818,-94.9186,2.0,305.6509841,6.485468372,-99999.0,'11133222,11111222,99999999' 
TABS,ioos:station:wmo:42043:1,2006-01-01T20:00:00Z,28.9818,-94.9186,2.0,347.2354281,5.793177021,-99999.0,'11133222,11111222,99999999' 
TABS,ioos:station:wmo:42043:1,2006-01-01T20:30:00Z,28.9818,-94.9186,2.0,353.2666029,5.628827587,-99999.0,'11133222,11111222,99999999' 
TABS,ioos:station:wmo:42043:1,2006-01-01T21:00:00Z,28.9818,-94.9186,2.0,4.808153179,6.442670254,-99999.0,'11133222,11111222,99999999' 
TABS,ioos:station:wmo:42043:1,2006-01-01T21:30:00Z,28.9818,-94.9186,2.0,8.642219054,5.856492124,-99999.0,'11133222,11111222,99999999' 
TABS,ioos:station:wmo:42043:1,2006-01-01T22:00:00Z,28.9818,-94.9186,2.0,20.94034406,8.03037359,-99999.0,'11133222,11111222,99999999' 
TABS,ioos:station:wmo:42043:1,2006-01-01T22:30:00Z,28.9818,-94.9186,2.0,26.82727039,7.821847608,-99999.0,'11133222,11111222,99999999' 
TABS,ioos:station:wmo:42043:1,2006-01-01T23:00:00Z,28.9818,-94.9186,2.0,15.35572397,8.005797899,-99999.0,'11133222,11111222,99999999' 
TABS,ioos:station:wmo:42043:1,2006-01-01T23:30:00Z,28.9818,-94.9186,2.0,39.52006057,8.218789449,-99999.0,'11133222,11111222,99999999' 
TABS,ioos:station:wmo:42043:1,2006-01-02T00:00:00Z,28.9818,-94.9186,2.0,48.27341338,12.26002039,-99999.0,'11111222,11111222,99999999' 
TABS,ioos:station:wmo:42043:1,2006-01-02T00:30:00Z,28.9818,-94.9186,2.0,58.0973995,11.82641535,-99999.0,'11111222,11111222,99999999' 
TABS,ioos:station:wmo:42043:1,2006-01-02T01:00:00Z,28.9818,-94.9186,2.0,59.64195553,12.97973806,-99999.0,'11111222,11111222,99999999' 
TABS,ioos:station:wmo:42043:1,2006-01-02T01:30:00Z,28.9818,-94.9186,2.0,55.04577846,12.4449548,-99999.0,'11111222,11111222,99999999' 
TABS,ioos:station:wmo:42043:1,2006-01-02T02:00:00Z,28.9818,-94.9186,2.0,59.51355357,15.23646284,-99999.0,'11111222,11111222,99999999' 
TABS,ioos:station:wmo:42043:1,2006-01-02T02:30:00Z,28.9818,-94.9186,2.0,63.61350147,14.35562607,-99999.0,'11111222,11111222,99999999' 
TABS,ioos:station:wmo:42043:1,2006-01-02T03:00:00Z,28.9818,-94.9186,2.0,57.97177861,18.55420438,-99999.0,'11111222,11111222,99999999' 
TABS,ioos:station:wmo:42043:1,2006-01-02T03:30:00Z,28.9818,-94.9186,2.0,56.79782287,20.19736616,-99999.0,'11111222,11111222,99999999' 
TABS,ioos:station:wmo:42043:1,2006-01-02T04:00:00Z,28.9818,-94.9186,2.0,65.64624431,20.51554776,-99999.0,'11111222,11111222,99999999' 
TABS,ioos:station:wmo:42043:1,2006-01-02T04:30:00Z,28.9818,-94.9186,2.0,60.16205888,23.65593583,-99999.0,'11111222,11111222,99999999' 
TABS,ioos:station:wmo:42043:1,2006-01-02T05:00:00Z,28.9818,-94.9186,2.0,65.92198677,21.64316289,-99999.0,'11111222,11111222,99999999' 
TABS,ioos:station:wmo:42043:1,2006-01-02T05:30:00Z,28.9818,-94.9186,2.0,70.51463503,23.11380972,-99999.0,'11111222,11111222,99999999' 
TABS,ioos:station:wmo:42043:1,2006-01-02T06:00:00Z,28.9818,-94.9186,2.0,69.38226742,26.06976026,-99999.0,'11111222,11111222,99999999' 
TABS,ioos:station:wmo:42043:1,2006-01-02T06:30:00Z,28.9818,-94.9186,2.0,70.33939709,28.2361134,-99999.0,'11111222,11111222,99999999' 
TABS,ioos:station:wmo:42043:1,2006-01-02T07:00:00Z,28.9818,-94.9186,2.0,79.43314167,26.01110917,-99999.0,'11111222,11111222,99999999' 
TABS,ioos:station:wmo:42043:1,2006-01-02T07:30:00Z,28.9818,-94.9186,2.0,82.09745503,27.42040299,-99999.0,'11111222,11111222,99999999' 
TABS,ioos:station:wmo:42043:1,2006-01-02T08:00:00Z,28.9818,-94.9186,2.0,87.64030667,28.1738904,-99999.0,'11111222,11111222,99999999' 
TABS,ioos:station:wmo:42043:1,2006-01-02T08:30:00Z,28.9818,-94.9186,2.0,92.39606631,30.61676828,-99999.0,'11111222,11111222,99999999' 
TABS,ioos:station:wmo:42043:1,2006-01-02T09:00:00Z,28.9818,-94.9186,2.0,99.18152228,28.51534675,-99999.0,'11111222,11111222,99999999' 
TABS,ioos:station:wmo:42043:1,2006-01-02T09:30:00Z,28.9818,-94.9186,2.0,107.6863231,28.07709743,-99999.0,'11111222,11111222,99999999' 
TABS,ioos:station:wmo:42043:1,2006-01-02T10:00:00Z,28.9818,-94.9186,2.0,111.7059012,30.09382827,-99999.0,'11111222,11111222,99999999' 
TABS,ioos:station:wmo:42043:1,2006-01-02T10:30:00Z,28.9818,-94.9186,2.0,116.1160159,27.96512471,-99999.0,'11111222,11111222,99999999' 
TABS,ioos:station:wmo:42043:1,2006-01-02T11:00:00Z,28.9818,-94.9186,2.0,128.0110562,28.41763713,-99999.0,'11111222,11111222,99999999' 
TABS,ioos:station:wmo:42043:1,2006-01-02T11:30:00Z,28.9818,-94.9186,2.0,130.1392444,31.21079941,-99999.0,'11111222,11111222,99999999' 
TABS,ioos:station:wmo:42043:1,2006-01-02T12:00:00Z,28.9818,-94.9186,2.0,131.4981315,28.13173475,-99999.0,'11111222,11111222,99999999' 
TABS,ioos:station:wmo:42043:1,2006-01-02T12:30:00Z,28.9818,-94.9186,2.0,137.38014,29.62505021,-99999.0,'11111222,11111222,99999999' 
TABS,ioos:station:wmo:42043:1,2006-01-02T13:00:00Z,28.9818,-94.9186,2.0,140.5118063,31.65504383,-99999.0,'11111222,11111222,99999999' 
TABS,ioos:station:wmo:42043:1,2006-01-02T13:30:00Z,28.9818,-94.9186,2.0,143.7261305,30.9476752,-99999.0,'11111222,11111222,99999999' 
TABS,ioos:station:wmo:42043:1,2006-01-02T14:00:00Z,28.9818,-94.9186,2.0,143.6435219,30.34721898,-99999.0,'11111222,11111222,99999999' 
TABS,ioos:station:wmo:42043:1,2006-01-02T14:30:00Z,28.9818,-94.9186,2.0,145.9138637,30.10152488,-99999.0,'11111222,11111222,99999999' 
TABS,ioos:station:wmo:42043:1,2006-01-02T15:00:00Z,28.9818,-94.9186,2.0,148.9866643,29.81161015,-99999.0,'11111222,11111222,99999999' 
TABS,ioos:station:wmo:42043:1,2006-01-02T15:30:00Z,28.9818,-94.9186,2.0,148.6061402,28.79542325,-99999.0,'11111222,11111222,99999999' 
TABS,ioos:station:wmo:42043:1,2006-01-02T16:00:00Z,28.9818,-94.9186,2.0,151.8157063,25.95769635,-99999.0,'11111222,11111222,99999999' 
TABS,ioos:station:wmo:42043:1,2006-01-02T16:30:00Z,28.9818,-94.9186,2.0,150.1787868,24.25129275,-99999.0,'11111222,11111222,99999999' 
TABS,ioos:station:wmo:42043:1,2006-01-02T17:00:00Z,28.9818,-94.9186,2.0,158.5626183,18.11308919,-99999.0,'11111222,11111222,99999999' 
TABS,ioos:station:wmo:42043:1,2006-01-02T17:30:00Z,28.9818,-94.9186,2.0,157.5829508,17.80549634,-99999.0,'11111222,11111222,99999999' 
TABS,ioos:station:wmo:42043:1,2006-01-02T18:00:00Z,28.9818,-94.9186,2.0,143.4683693,12.86822443,-99999.0,'11111222,11111222,99999999' 
TABS,ioos:station:wmo:42043:1,2006-01-02T18:30:00Z,28.9818,-94.9186,2.0,153.7077431,11.2654383,-99999.0,'11111222,11111222,99999999' 
TABS,ioos:station:wmo:42043:1,2006-01-02T19:00:00Z,28.9818,-94.9186,2.0,146.4888491,7.10019718,-99999.0,'11133222,11111222,99999999' 
TABS,ioos:station:wmo:42043:1,2006-01-02T19:30:00Z,28.9818,-94.9186,2.0,125.8129506,3.144534942,-99999.0,'11133222,11111222,99999999' 
TABS,ioos:station:wmo:42043:1,2006-01-02T20:00:00Z,28.9818,-94.9186,2.0,151.6889321,3.816503636,-99999.0,'11133222,11111222,99999999' 
TABS,ioos:station:wmo:42043:1,2006-01-02T20:30:00Z,28.9818,-94.9186,2.0,84.81977587,3.65492818,-99999.0,'11133222,11111222,99999999' 
TABS,ioos:station:wmo:42043:1,2006-01-02T21:00:00Z,28.9818,-94.9186,2.0,45.24117945,5.041715978,-99999.0,'11133222,11111222,99999999' 
TABS,ioos:station:wmo:42043:1,2006-01-02T21:30:00Z,28.9818,-94.9186,2.0,42.38492058,7.283714712,-99999.0,'11133222,11111222,99999999' 
TABS,ioos:station:wmo:42043:1,2006-01-02T22:00:00Z,28.9818,-94.9186,2.0,46.55567494,8.856240737,-99999.0,'11133222,11111222,99999999' 
TABS,ioos:station:wmo:42043:1,2006-01-02T22:30:00Z,28.9818,-94.9186,2.0,41.38319518,11.20875551,-99999.0,'11111222,11111222,99999999' 
TABS,ioos:station:wmo:42043:1,2006-01-02T23:00:00Z,28.9818,-94.9186,2.0,35.17107289,14.16622744,-99999.0,'11111222,11111222,99999999' 
TABS,ioos:station:wmo:42043:1,2006-01-02T23:30:00Z,28.9818,-94.9186,2.0,39.80043584,13.96626292,-99999.0,'11111222,11111222,99999999' 
TABS,ioos:station:wmo:42043:1,2006-01-03T00:00:00Z,28.9818,-94.9186,2.0,37.84023297,14.41006593,-99999.0,'11111222,11111222,99999999' 
TABS,ioos:station:wmo:42043:1,2006-01-03T00:30:00Z,28.9818,-94.9186,2.0,42.09793976,14.24525886,-99999.0,'11111222,11111222,99999999' 
TABS,ioos:station:wmo:42043:1,2006-01-03T01:00:00Z,28.9818,-94.9186,2.0,44.60201255,13.23028722,-99999.0,'11111222,11111222,99999999' 
TABS,ioos:station:wmo:42043:1,2006-01-03T01:30:00Z,28.9818,-94.9186,2.0,46.56069926,15.83799545,-99999.0,'11111222,11111222,99999999' 
TABS,ioos:station:wmo:42043:1,2006-01-03T02:00:00Z,28.9818,-94.9186,2.0,57.15398573,17.69962994,-99999.0,'11111222,11111222,99999999' 
TABS,ioos:station:wmo:42043:1,2006-01-03T02:30:00Z,28.9818,-94.9186,2.0,58.37353594,19.71851161,-99999.0,'11111222,11111222,99999999' 
TABS,ioos:station:wmo:42043:1,2006-01-03T03:00:00Z,28.9818,-94.9186,2.0,59.80332764,19.3450588,-99999.0,'11111222,11111222,99999999' 
TABS,ioos:station:wmo:42043:1,2006-01-03T03:30:00Z,28.9818,-94.9186,2.0,63.61273488,18.74281196,-99999.0,'11111222,11111222,99999999' 
TABS,ioos:station:wmo:42043:1,2006-01-03T04:00:00Z,28.9818,-94.9186,2.0,57.62769043,21.34773524,-99999.0,'11111222,11111222,99999999' 
TABS,ioos:station:wmo:42043:1,2006-01-03T04:30:00Z,28.9818,-94.9186,2.0,53.90415493,24.57824241,-99999.0,'11111222,11111222,99999999' 
TABS,ioos:station:wmo:42043:1,2006-01-03T05:00:00Z,28.9818,-94.9186,2.0,59.31489867,25.39581068,-99999.0,'11111222,11111222,99999999' 
TABS,ioos:station:wmo:42043:1,2006-01-03T05:30:00Z,28.9818,-94.9186,2.0,59.67885022,27.3746105,-99999.0,'11111222,11111222,99999999' 
TABS,ioos:station:wmo:42043:1,2006-01-03T06:00:00Z,28.9818,-94.9186,2.0,59.21592546,28.99540826,-99999.0,'11111222,11111222,99999999' 
TABS,ioos:station:wmo:42043:1,2006-01-03T06:30:00Z,28.9818,-94.9186,2.0,63.05877853,28.60439826,-99999.0,'11111222,11111222,99999999' 
TABS,ioos:station:wmo:42043:1,2006-01-03T07:00:00Z,28.9818,-94.9186,2.0,66.01135495,28.85207965,-99999.0,'11111222,11111222,99999999' 
TABS,ioos:station:wmo:42043:1,2006-01-03T07:30:00Z,28.9818,-94.9186,2.0,70.20116994,31.3533794,-99999.0,'11111222,11111222,99999999' 
TABS,ioos:station:wmo:42043:1,2006-01-03T08:00:00Z,28.9818,-94.9186,2.0,69.23606132,31.28179343,-99999.0,'11111222,11111222,99999999' 
TABS,ioos:station:wmo:42043:1,2006-01-03T08:30:00Z,28.9818,-94.9186,2.0,70.35111698,31.49386766,-99999.0,'11111222,11111222,99999999' 
TABS,ioos:station:wmo:42043:1,2006-01-03T09:00:00Z,28.9818,-94.9186,2.0,72.84548623,31.70026183,-99999.0,'11111222,11111222,99999999' 
TABS,ioos:station:wmo:42043:1,2006-01-03T09:30:00Z,28.9818,-94.9186,2.0,77.69268463,30.306496,-99999.0,'11111222,11111222,99999999' 
TABS,ioos:station:wmo:42043:1,2006-01-03T10:00:00Z,28.9818,-94.9186,2.0,80.58521436,27.75384658,-99999.0,'11111222,11111222,99999999' 
TABS,ioos:station:wmo:42043:1,2006-01-03T10:30:00Z,28.9818,-94.9186,2.0,83.31224396,27.30580158,-99999.0,'11111222,11111222,99999999' 
TABS,ioos:station:wmo:42043:1,2006-01-03T11:00:00Z,28.9818,-94.9186,2.0,87.72483287,26.70104867,-99999.0,'11111222,11111222,99999999' 
TABS,ioos:station:wmo:42043:1,2006-01-03T11:30:00Z,28.9818,-94.9186,2.0,95.15784119,22.69188401,-99999.0,'11111222,11111222,99999999' 
TABS,ioos:station:wmo:42043:1,2006-01-03T12:00:00Z,28.9818,-94.9186,2.0,100.0221483,23.38687239,-99999.0,'11111222,11111222,99999999' 
TABS,ioos:station:wmo:42043:1,2006-01-03T12:30:00Z,28.9818,-94.9186,2.0,107.1671012,21.58150365,-99999.0,'11111222,11111222,99999999' 
TABS,ioos:station:wmo:42043:1,2006-01-03T13:00:00Z,28.9818,-94.9186,2.0,118.3159491,20.34430141,-99999.0,'11111222,11111222,99999999' 
TABS,ioos:station:wmo:42043:1,2006-01-03T13:30:00Z,28.9818,-94.9186,2.0,120.9496857,21.0583119,-99999.0,'11111222,11111222,99999999' 
TABS,ioos:station:wmo:42043:1,2006-01-03T14:00:00Z,28.9818,-94.9186,2.0,130.0769626,18.37477891,-99999.0,'11111222,11111222,99999999' 
TABS,ioos:station:wmo:42043:1,2006-01-03T14:30:00Z,28.9818,-94.9186,2.0,137.8662678,20.36186632,-99999.0,'11111222,11111222,99999999' 
TABS,ioos:station:wmo:42043:1,2006-01-03T15:00:00Z,28.9818,-94.9186,2.0,143.4891535,17.86635105,-99999.0,'11111222,11111222,99999999' 
TABS,ioos:station:wmo:42043:1,2006-01-03T15:30:00Z,28.9818,-94.9186,2.0,146.9189974,16.43392223,-99999.0,'11111222,11111222,99999999' 
TABS,ioos:station:wmo:42043:1,2006-01-03T16:00:00Z,28.9818,-94.9186,2.0,151.1802308,14.21003167,-99999.0,'11111222,11111222,99999999' 
TABS,ioos:station:wmo:42043:1,2006-01-03T16:30:00Z,28.9818,-94.9186,2.0,147.4248483,13.96722234,-99999.0,'11111222,11111222,99999999' 
TABS,ioos:station:wmo:42043:1,2006-01-03T17:00:00Z,28.9818,-94.9186,2.0,147.6935389,14.12678661,-99999.0,'11111222,11111222,99999999' 
TABS,ioos:station:wmo:42043:1,2006-01-03T17:30:00Z,28.9818,-94.9186,2.0,145.3174651,11.37028584,-99999.0,'11111222,11111222,99999999' 
TABS,ioos:station:wmo:42043:1,2006-01-03T18:00:00Z,28.9818,-94.9186,2.0,141.185924,7.546343485,-99999.0,'11133222,11111222,99999999' 
TABS,ioos:station:wmo:42043:1,2006-01-03T18:30:00Z,28.9818,-94.9186,2.0,122.9542906,8.640167822,-99999.0,'11133222,11111222,99999999' 
TABS,ioos:station:wmo:42043:1,2006-01-03T19:00:00Z,28.9818,-94.9186,2.0,105.7185362,5.204632552,-99999.0,'11133222,11111222,99999999' 
TABS,ioos:station:wmo:42043:1,2006-01-03T19:30:00Z,28.9818,-94.9186,2.0,79.8209637,8.148251346,-99999.0,'11133222,11111222,99999999' 
TABS,ioos:station:wmo:42043:1,2006-01-03T20:00:00Z,28.9818,-94.9186,2.0,77.06947877,8.043979115,-99999.0,'11133222,11111222,99999999' 
TABS,ioos:station:wmo:42043:1,2006-01-03T20:30:00Z,28.9818,-94.9186,2.0,61.49452498,8.716719566,-99999.0,'11133222,11111222,99999999' 
TABS,ioos:station:wmo:42043:1,2006-01-03T21:00:00Z,28.9818,-94.9186,2.0,42.57633955,10.70102799,-99999.0,'11111222,11111222,99999999' 
TABS,ioos:station:wmo:42043:1,2006-01-03T21:30:00Z,28.9818,-94.9186,2.0,36.87002189,11.1,-99999.0,'11111222,11111222,99999999' 
TABS,ioos:station:wmo:42043:1,2006-01-03T22:00:00Z,28.9818,-94.9186,2.0,36.804485,13.98800915,-99999.0,'11111222,11111222,99999999' 
TABS,ioos:station:wmo:42043:1,2006-01-03T22:30:00Z,28.9818,-94.9186,2.0,27.6582498,15.9415934,-99999.0,'11111222,11111222,99999999' 
TABS,ioos:station:wmo:42043:1,2006-01-03T23:00:00Z,28.9818,-94.9186,2.0,33.56673957,15.44566282,-99999.0,'11111222,11111222,99999999' 
TABS,ioos:station:wmo:42043:1,2006-01-03T23:30:00Z,28.9818,-94.9186,2.0,34.28548639,14.14839213,-99999.0,'11111222,11111222,99999999' 
TABS,ioos:station:wmo:42043:1,2006-01-04T00:00:00Z,28.9818,-94.9186,2.0,29.33565397,16.83938538,-99999.0,'11111222,11111222,99999999' 
TABS,ioos:station:wmo:42043:1,2006-01-04T00:30:00Z,28.9818,-94.9186,2.0,35.30591534,14.36135091,-99999.0,'11111222,11111222,99999999' 
TABS,ioos:station:wmo:42043:1,2006-01-04T01:00:00Z,28.9818,-94.9186,2.0,31.88343424,14.4266039,-99999.0,'11111222,11111222,99999999' 
TABS,ioos:station:wmo:42043:1,2006-01-04T01:30:00Z,28.9818,-94.9186,2.0,31.94575447,13.21076077,-99999.0,'11111222,11111222,99999999' 
TABS,ioos:station:wmo:42043:1,2006-01-04T02:00:00Z,28.9818,-94.9186,2.0,37.23887288,13.9802897,-99999.0,'11111222,11111222,99999999' 
TABS,ioos:station:wmo:42043:1,2006-01-04T02:30:00Z,28.9818,-94.9186,2.0,37.72301903,12.2253548,-99999.0,'11111222,11111222,99999999' 
TABS,ioos:station:wmo:42043:1,2006-01-04T03:00:00Z,28.9818,-94.9186,2.0,41.10843804,12.50219181,-99999.0,'11111222,11111222,99999999' 
TABS,ioos:station:wmo:42043:1,2006-01-04T03:30:00Z,28.9818,-94.9186,2.0,44.53698654,12.24748954,-99999.0,'11111222,11111222,99999999' 
TABS,ioos:station:wmo:42043:1,2006-01-04T04:00:00Z,28.9818,-94.9186,2.0,48.93357121,13.09110003,-99999.0,'11111222,11111222,99999999' 
TABS,ioos:station:wmo:42043:1,2006-01-04T04:30:00Z,28.9818,-94.9186,2.0,53.39683305,13.75214892,-99999.0,'11111222,11111222,99999999' 
TABS,ioos:station:wmo:42043:1,2006-01-04T05:00:00Z,28.9818,-94.9186,2.0,57.73578679,15.71674903,-99999.0,'11111222,11111222,99999999' 
TABS,ioos:station:wmo:42043:1,2006-01-04T05:30:00Z,28.9818,-94.9186,2.0,57.56905352,16.40921997,-99999.0,'11111222,11111222,99999999' 
TABS,ioos:station:wmo:42043:1,2006-01-04T06:00:00Z,28.9818,-94.9186,2.0,57.89666357,16.72785103,-99999.0,'11111222,11111222,99999999' 
TABS,ioos:station:wmo:42043:1,2006-01-04T06:30:00Z,28.9818,-94.9186,2.0,65.14847225,18.84506301,-99999.0,'11111222,11111222,99999999' 
TABS,ioos:station:wmo:42043:1,2006-01-04T07:00:00Z,28.9818,-94.9186,2.0,69.46712724,20.29961822,-99999.0,'11111222,11111222,99999999' 
TABS,ioos:station:wmo:42043:1,2006-01-04T07:30:00Z,28.9818,-94.9186,2.0,76.74456566,19.756361,-99999.0,'11111222,11111222,99999999' 
TABS,ioos:station:wmo:42043:1,2006-01-04T08:00:00Z,28.9818,-94.9186,2.0,77.86767175,20.22165671,-99999.0,'11111222,11111222,99999999' 
TABS,ioos:station:wmo:42043:1,2006-01-04T08:30:00Z,28.9818,-94.9186,2.0,81.77561586,20.6220901,-99999.0,'11111222,11111222,99999999' 
TABS,ioos:station:wmo:42043:1,2006-01-04T09:00:00Z,28.9818,-94.9186,2.0,79.497983,19.75085821,-99999.0,'11111222,11111222,99999999' 
TABS,ioos:station:wmo:42043:1,2006-01-04T09:30:00Z,28.9818,-94.9186,2.0,79.82378717,19.92341587,-99999.0,'11111222,11111222,99999999' 
TABS,ioos:station:wmo:42043:1,2006-01-04T10:00:00Z,28.9818,-94.9186,2.0,83.90580684,20.06338456,-99999.0,'11111222,11111222,99999999' 
TABS,ioos:station:wmo:42043:1,2006-01-04T10:30:00Z,28.9818,-94.9186,2.0,91.96609338,20.1118398,-99999.0,'11111222,11111222,99999999' 
TABS,ioos:station:wmo:42043:1,2006-01-04T11:00:00Z,28.9818,-94.9186,2.0,97.8643278,19.51352864,-99999.0,'11111222,11111222,99999999' 
TABS,ioos:station:wmo:42043:1,2006-01-04T11:30:00Z,28.9818,-94.9186,2.0,103.5422273,17.72273681,-99999.0,'11111222,11111222,99999999' 
TABS,ioos:station:wmo:42043:1,2006-01-04T12:00:00Z,28.9818,-94.9186,2.0,112.9273267,17.19870925,-99999.0,'11111222,11111222,99999999' 
TABS,ioos:station:wmo:42043:1,2006-01-04T12:30:00Z,28.9818,-94.9186,2.0,117.1018803,16.70416116,-99999.0,'11111222,11111222,99999999' 
TABS,ioos:station:wmo:42043:1,2006-01-04T13:00:00Z,28.9818,-94.9186,2.0,131.1563507,16.45603233,-99999.0,'11111222,11111222,99999999' 
TABS,ioos:station:wmo:42043:1,2006-01-04T13:30:00Z,28.9818,-94.9186,2.0,144.6931623,17.30243913,-99999.0,'11111222,11111222,99999999' 
TABS,ioos:station:wmo:42043:1,2006-01-04T14:00:00Z,28.9818,-94.9186,2.0,147.3698922,17.98923289,-99999.0,'11111222,11111222,99999999' 
TABS,ioos:station:wmo:42043:1,2006-01-04T14:30:00Z,28.9818,-94.9186,2.0,155.8332162,18.80839174,-99999.0,'11111222,11111222,99999999' 
TABS,ioos:station:wmo:42043:1,2006-01-04T15:00:00Z,28.9818,-94.9186,2.0,168.4669444,19.65686903,-99999.0,'11111222,11111222,99999999' 
TABS,ioos:station:wmo:42043:1,2006-01-04T15:30:00Z,28.9818,-94.9186,2.0,176.7455857,20.08238283,-99999.0,'11111222,11111222,99999999' 
TABS,ioos:station:wmo:42043:1,2006-01-04T16:00:00Z,28.9818,-94.9186,2.0,178.9777481,20.74330012,-99999.0,'11111222,11111222,99999999' 